| time (UTC) | temp F | wind direction | speed MPH | gust MPH | rain 1hr in | rain 24hr in | rain mn in | humidity % | barometer mb |
| 20260510085801 | 50 | 337 | 7.0 | 7.0 | 0.00 | 0.00 | 0.00 | 86 | 1011.4 |
| 20260510075801 | 50 | 337 | 5.0 | 5.0 | 0.00 | 0.00 | 0.00 | 81 | 1011.4 |
| 20260510065802 | 50 | 0 | 3.0 | 3.0 | 0.00 | 0.00 | 0.00 | 85 | 1011.4 |
| 20260510055802 | 51 | 45 | 6.0 | 6.0 | 0.00 | 0.00 | 0.00 | 87 | 1011.0 |
| 20260510045802 | 51 | 90 | 6.0 | 6.0 | 0.00 | 0.00 | 0.00 | 88 | 1011.1 |
| 20260510035802 | 51 | 67 | 5.0 | 5.0 | 0.00 | 0.00 | 0.00 | 87 | 1011.0 |
| 20260510025802 | 51 | 22 | 3.0 | 3.0 | 0.00 | 0.00 | 0.00 | 86 | 1011.5 |
| 20260510015802 | 51 | 45 | 6.0 | 6.0 | 0.00 | 0.00 | 0.00 | 86 | 1011.7 |
| 20260510005802 | 52 | 337 | 2.0 | 2.0 | 0.00 | 0.00 | 0.00 | 86 | 1012.1 |
| 20260509235801 | 52 | 67 | 7.0 | 7.0 | 0.00 | 0.00 | 0.00 | 84 | 1012.8 |
| 20260509225802 | 52 | 45 | 7.0 | 7.0 | 0.00 | 0.00 | 0.00 | 83 | 1013.2 |
| 20260509215802 | 51 | 22 | 6.0 | 6.0 | 0.00 | 0.00 | 0.00 | 83 | 1013.7 |
| 20260509205801 | 52 | 67 | 7.0 | 7.0 | 0.00 | 0.00 | 0.00 | 80 | 1013.7 |
| 20260509195801 | 52 | 67 | 6.0 | 6.0 | 0.00 | 0.00 | 0.00 | 80 | 1014.2 |
| 20260509185801 | 52 | 67 | 6.0 | 6.0 | 0.00 | 0.00 | 0.00 | 74 | 1013.6 |
| 20260509175801 | 53 | 67 | 7.0 | 7.0 | 0.00 | 0.00 | 0.00 | 73 | 1013.6 |
| 20260509165801 | 55 | 67 | 10.0 | 10.0 | 0.00 | 0.05 | 0.00 | 68 | 1013.2 |
| 20260509155801 | 56 | 90 | 11.0 | 11.0 | 0.00 | 0.11 | 0.00 | 65 | 1014.1 |
| 20260509145802 | 54 | 67 | 10.0 | 10.0 | 0.00 | 0.25 | 0.00 | 69 | 1014.7 |
| 20260509135801 | 56 | 67 | 12.0 | 12.0 | 0.00 | 0.35 | 0.00 | 67 | 1015.0 |
| 20260509125802 | 55 | 67 | 13.0 | 13.0 | 0.00 | 0.35 | 0.00 | 73 | 1016.0 |
| 20260509115801 | 57 | 67 | 12.0 | 12.0 | 0.00 | 0.35 | 0.00 | 69 | 1016.3 |
| 20260509105801 | 56 | 67 | 11.0 | 11.0 | 0.00 | 0.35 | 0.00 | 74 | 1016.3 |
| 20260509095803 | 58 | 67 | 10.0 | 10.0 | 0.00 | 0.35 | 0.00 | 70 | 1016.8 |